TimePDT,TemperatureF,Dew PointF,Humidity,Sea Level PressureIn,VisibilityMPH,Wind Direction,Wind SpeedMPH,Gust SpeedMPH,PrecipitationIn,Events,Conditions,WindDirDegrees,DateUTC
12:56 AM,63.9,28.0,26,29.81,10.0,South,6.9,-,N/A,,Clear,180,2012-10-08 07:56:00
1:56 AM,63.0,28.0,27,29.81,10.0,South,8.1,-,N/A,,Clear,180,2012-10-08 08:56:00
2:56 AM,63.0,28.0,27,29.80,10.0,South,10.4,-,N/A,,Clear,180,2012-10-08 09:56:00
3:56 AM,61.9,28.0,28,29.80,10.0,South,5.8,-,N/A,,Clear,180,2012-10-08 10:56:00
4:56 AM,61.9,29.1,29,29.81,10.0,SSE,8.1,-,N/A,,Clear,160,2012-10-08 11:56:00
5:56 AM,61.9,29.1,29,29.81,10.0,South,6.9,-,N/A,,Clear,190,2012-10-08 12:56:00
6:56 AM,61.9,27.1,27,29.83,10.0,South,10.4,-,N/A,,Clear,190,2012-10-08 13:56:00
7:56 AM,66.9,29.1,24,29.85,10.0,SSW,6.9,-,N/A,,Clear,200,2012-10-08 14:56:00
8:56 AM,70.9,30.0,22,29.86,10.0,Calm,Calm,-,N/A,,Clear,0,2012-10-08 15:56:00
9:56 AM,77.0,32.0,19,29.85,10.0,NE,5.8,-,N/A,,Clear,50,2012-10-08 16:56:00
10:56 AM,79.9,34.0,19,29.83,10.0,NE,6.9,-,N/A,,Clear,50,2012-10-08 17:56:00
11:56 AM,82.9,34.0,17,29.82,10.0,ENE,6.9,-,N/A,,Clear,60,2012-10-08 18:56:00
1:56 PM,88.9,32.0,13,29.75,10.0,SW,13.8,-,N/A,,Clear,220,2012-10-08 20:56:00
2:56 PM,88.9,32.0,13,29.74,10.0,WSW,12.7,-,N/A,,Clear,250,2012-10-08 21:56:00
3:56 PM,88.9,29.1,12,29.73,10.0,WSW,10.4,-,N/A,,Clear,240,2012-10-08 22:56:00
4:56 PM,88.0,27.1,11,29.73,10.0,SW,12.7,-,N/A,,Clear,220,2012-10-08 23:56:00
7:56 PM,77.9,24.1,14,29.75,10.0,SSW,10.4,-,N/A,,Clear,200,2012-10-09 02:56:00
8:56 PM,77.0,25.2,15,29.77,10.0,South,8.1,-,N/A,,Clear,190,2012-10-09 03:56:00
9:56 PM,77.9,28.0,16,29.77,10.0,SE,8.1,-,N/A,,Clear,140,2012-10-09 04:56:00
10:56 PM,75.9,30.0,19,29.78,10.0,SSE,9.2,-,N/A,,Clear,150,2012-10-09 05:56:00
11:56 PM,75.9,29.1,18,29.77,10.0,SE,8.1,-,N/A,,Clear,140,2012-10-09 06:56:00